Weather in Volonga

Russia / Nenets Autonomous Okrug     67°07′55″N   47°46′19″E
temp.,
°C
wind,
m/s
gust,
m/s
humid.,
%
clouds,
%
prec.,
mm/h
press.,
hPa
HPBL,
m
1 march, mon
mon100:00−4sw91495100 0.7 1003546
03:00−4sw101695100 2.3 999600
06:00−3sw101596100 2.1 994550
09:00−2sw111697100 5.8 989680
12:00+1w101698100 2.8 987485
15:000w8129597 2.9 987417
18:00−1w7129698 0.1 986304
21:00−4wsw589786 0.1 986101
2 march, tue
tue200:00−4wsw699780 0.1 985191
03:00−4wsw6109690 0.8 985223
06:00−5wsw589695 0.7 986248
09:00−4w479698 2.6 987280
12:00−3nw4784100 0.6 988168
15:00−7w568667 0.6 98983
18:00−6wsw7138823 0.0 988232
21:00−4wsw8139433 0.3 987430
3 march, wed
wed300:00−6ssw6996100 0.1 986149
03:00−9w4796100 0.4 987128
06:00−10e2295100 0.3 98940
09:00−12nne91292100 0.4 992292
12:00−15nne81092100 0.2 994347
15:00−16nne6994100 0.3 996374
18:00−18n5895100 0.2 996325
21:00−19n5797100 0.3 996223
4 march, thu
thu400:00−20n479899 0.1 996226
03:00−19n479799 0.2 996225
06:00−18n4598100 0.1 99590
09:00−15ne5893100 0.2 995345
12:00−16ne6891100 0.1 996399
15:00−16ne699299 0.3 997452
18:00−18ne71093100 0.1 997370
21:00−20ne7109599 0.3 999307
5 march, fri
fri500:00−24nne6998100 0.0 1000201
03:00−23nne6998100 0.0 1001263
06:00−23nne589899 0.1 1003254
09:00−24n479999 0.1 1003199
12:00−23n459698 0.0 1005290
15:00−22nnw359599 0.1 1006301
18:00−24n349898 0.0 100730
21:00−24n2310097 0.1 100770